Location: Haliburton Scout Reserve
(45.0900°N, 78.3200°W)
Time: 09:42:27
(UTC-04:00)

Explorer 11/Cluster Stage 4 - Pass Details

Date: 30 January 2023
Orbit: 466 x 1241 km, 28.8° (Epoch: 31 March)

Event Time Altitude Azimuth Distance (km) Brightness Sun altitude
Rises 07:30:50 0° 230° (SW) 4,166 10.0 -1.6°
Reaches altitude 10° 07:34:40 10° 215° (SW) 3,174 9.6 -1.0°
Maximum altitude 07:40:07 20° 172° (S) 2,397 9.6 -0.1°
Drops below altitude 10° 07:45:13 10° 128° (SE) 2,934 11.5 0.7°
Sets 07:48:35 0° 113° (ESE) 3,764 13.4 1.2°
